Year,Month,Day,Hour,Minute,Value (Times are PST for temperature in C)
2020,11,04,00,00,10.30
2020,11,04,00,01,10.30
2020,11,04,00,02,10.30
2020,11,04,00,03,10.30
2020,11,04,00,04,10.30
2020,11,04,00,05,10.30
2020,11,04,00,06,10.30
2020,11,04,00,07,10.30
2020,11,04,00,08,10.30
2020,11,04,00,09,10.30
2020,11,04,00,10,10.30
2020,11,04,00,11,10.30
2020,11,04,00,12,10.30
2020,11,04,00,13,10.30
2020,11,04,00,14,10.30
2020,11,04,00,15,10.30
2020,11,04,00,16,10.30
2020,11,04,00,17,10.30
2020,11,04,00,18,10.20
2020,11,04,00,19,10.20
2020,11,04,00,20,10.20
2020,11,04,00,21,10.20
2020,11,04,00,22,10.20
2020,11,04,00,23,10.20
2020,11,04,00,24,10.20
2020,11,04,00,25,10.20
2020,11,04,00,26,10.20
2020,11,04,00,27,10.20
2020,11,04,00,28,10.20
2020,11,04,00,29,10.20
2020,11,04,00,30,10.20
2020,11,04,00,31,10.20
2020,11,04,00,32,10.10
2020,11,04,00,33,10.10
2020,11,04,00,34,10.10
2020,11,04,00,35,10.10
2020,11,04,00,36,10.10
2020,11,04,00,37,10.10
2020,11,04,00,38,10.10
2020,11,04,00,39,10.10
2020,11,04,00,40,10.10
2020,11,04,00,41,10.10
2020,11,04,00,42,10.10
2020,11,04,00,43,10.10
2020,11,04,00,44,10.10
2020,11,04,00,45,10.10
2020,11,04,00,46,10.10
2020,11,04,00,47,10.10
2020,11,04,00,48,10.10
2020,11,04,00,49,10.10
2020,11,04,00,50,10.10
2020,11,04,00,51,10.10
2020,11,04,00,52,10.10
2020,11,04,00,53,10.10
2020,11,04,00,54,10.10
2020,11,04,00,55,10.10
2020,11,04,00,56,10.10
2020,11,04,00,57,10.10
2020,11,04,00,58,10.10
2020,11,04,00,59,10.10
2020,11,04,01,00,10.10
2020,11,04,01,01,10.10
2020,11,04,01,02,10.10
2020,11,04,01,03,10.10
2020,11,04,01,04,10.10
2020,11,04,01,05,10.10
2020,11,04,01,06,10.10
2020,11,04,01,07,10.10
2020,11,04,01,08,10.10
2020,11,04,01,09,10.10
2020,11,04,01,10,10.10
2020,11,04,01,11,10.10
2020,11,04,01,12,10.10
2020,11,04,01,13,10.10
2020,11,04,01,14,10.10
2020,11,04,01,15,10.10
2020,11,04,01,16,10.10
2020,11,04,01,17,10.10
2020,11,04,01,18,10.00
2020,11,04,01,19,10.00
2020,11,04,01,20,10.00
2020,11,04,01,21,10.00
2020,11,04,01,22,10.00
2020,11,04,01,23,10.00
2020,11,04,01,24,10.00
2020,11,04,01,25,10.00
2020,11,04,01,26,10.00
2020,11,04,01,27,10.00
2020,11,04,01,28,10.00
2020,11,04,01,29,10.00
2020,11,04,01,30,10.00
2020,11,04,01,31,10.00
2020,11,04,01,32,10.00
2020,11,04,01,33,9.90
2020,11,04,01,34,9.90
2020,11,04,01,35,9.90
2020,11,04,01,36,9.90
2020,11,04,01,37,9.90
2020,11,04,01,38,9.90
2020,11,04,01,39,9.90
2020,11,04,01,40,9.90
2020,11,04,01,41,9.90
2020,11,04,01,42,9.90
2020,11,04,01,43,9.90
2020,11,04,01,44,9.90
2020,11,04,01,45,9.90
2020,11,04,01,46,9.90
2020,11,04,01,47,9.90
2020,11,04,01,48,9.90
2020,11,04,01,49,9.90
2020,11,04,01,50,9.90
2020,11,04,01,51,9.90
2020,11,04,01,52,9.90
2020,11,04,01,53,9.90
2020,11,04,01,54,9.90
2020,11,04,01,55,9.90
2020,11,04,01,56,9.90
2020,11,04,01,57,9.90
2020,11,04,01,58,9.90
2020,11,04,01,59,9.90
2020,11,04,02,00,9.90
2020,11,04,02,01,10.00
2020,11,04,02,02,10.00
2020,11,04,02,03,10.00
2020,11,04,02,04,10.00
2020,11,04,02,05,10.00
2020,11,04,02,06,10.00
2020,11,04,02,07,10.00
2020,11,04,02,08,10.00
2020,11,04,02,09,10.00
2020,11,04,02,10,10.00
2020,11,04,02,11,10.10
2020,11,04,02,12,10.10
2020,11,04,02,13,10.10
2020,11,04,02,14,10.10
2020,11,04,02,15,10.10
2020,11,04,02,16,10.10
2020,11,04,02,17,10.10
2020,11,04,02,18,10.10
2020,11,04,02,19,10.10
2020,11,04,02,20,10.10
2020,11,04,02,21,10.10
2020,11,04,02,22,10.10
2020,11,04,02,23,10.10
2020,11,04,02,24,10.10
2020,11,04,02,25,10.20
2020,11,04,02,26,10.20
2020,11,04,02,27,10.20
2020,11,04,02,28,10.20
2020,11,04,02,29,10.20
2020,11,04,02,30,10.20
2020,11,04,02,31,10.20
2020,11,04,02,32,10.20
2020,11,04,02,33,10.30
2020,11,04,02,34,10.30
2020,11,04,02,35,10.30
2020,11,04,02,36,10.30
2020,11,04,02,37,10.30
2020,11,04,02,38,10.30
2020,11,04,02,39,10.30
2020,11,04,02,40,10.30
2020,11,04,02,41,10.30
2020,11,04,02,42,10.30
2020,11,04,02,43,10.30
2020,11,04,02,44,10.30
2020,11,04,02,45,10.40
2020,11,04,02,46,10.40
2020,11,04,02,47,10.40
2020,11,04,02,48,10.40
2020,11,04,02,49,10.40
2020,11,04,02,50,10.40
2020,11,04,02,51,10.40
2020,11,04,02,52,10.40
2020,11,04,02,53,10.40
2020,11,04,02,54,10.40
2020,11,04,02,55,10.40
2020,11,04,02,56,10.40
2020,11,04,02,57,10.30
2020,11,04,02,58,10.30
2020,11,04,02,59,10.30
2020,11,04,03,00,10.30
2020,11,04,03,01,10.30
2020,11,04,03,02,10.30
2020,11,04,03,03,10.30
2020,11,04,03,04,10.30
2020,11,04,03,05,10.30
2020,11,04,03,06,10.30
2020,11,04,03,07,10.30
2020,11,04,03,08,10.30
2020,11,04,03,09,10.30
2020,11,04,03,10,10.30
2020,11,04,03,11,10.20
2020,11,04,03,12,10.20
2020,11,04,03,13,10.20
2020,11,04,03,14,10.20
2020,11,04,03,15,10.20
2020,11,04,03,16,10.20
2020,11,04,03,17,10.20
2020,11,04,03,18,10.20
2020,11,04,03,19,10.20
2020,11,04,03,20,10.20
2020,11,04,03,21,10.20
2020,11,04,03,22,10.20
2020,11,04,03,23,10.20
2020,11,04,03,24,10.20
2020,11,04,03,25,10.20
2020,11,04,03,26,10.20
2020,11,04,03,27,10.20
2020,11,04,03,28,10.20
2020,11,04,03,29,10.10
2020,11,04,03,30,10.10
2020,11,04,03,31,10.10
2020,11,04,03,32,10.10
2020,11,04,03,33,10.10
2020,11,04,03,34,10.10
2020,11,04,03,35,10.10
2020,11,04,03,36,10.10
2020,11,04,03,37,10.10
2020,11,04,03,38,10.10
2020,11,04,03,39,10.10
2020,11,04,03,40,10.10
2020,11,04,03,41,10.10
2020,11,04,03,42,10.10
2020,11,04,03,43,10.10
2020,11,04,03,44,10.10
2020,11,04,03,45,10.10
2020,11,04,03,46,10.10
2020,11,04,03,47,10.10
2020,11,04,03,48,10.10
2020,11,04,03,49,10.10
2020,11,04,03,50,10.10
2020,11,04,03,51,10.10
2020,11,04,03,52,10.10
2020,11,04,03,53,10.10
2020,11,04,03,54,10.10
2020,11,04,03,55,10.10
2020,11,04,03,56,10.10
2020,11,04,03,57,10.10
2020,11,04,03,58,10.10
2020,11,04,03,59,10.10
2020,11,04,04,00,10.10
2020,11,04,04,01,10.10
2020,11,04,04,02,10.10
2020,11,04,04,03,10.10
2020,11,04,04,04,10.10
2020,11,04,04,05,10.10
2020,11,04,04,06,10.10
2020,11,04,04,07,10.10
2020,11,04,04,08,10.10
2020,11,04,04,09,10.10
2020,11,04,04,10,10.10
2020,11,04,04,11,10.10
2020,11,04,04,12,10.10
2020,11,04,04,13,10.10
2020,11,04,04,14,10.10
2020,11,04,04,15,10.10
2020,11,04,04,16,10.10
2020,11,04,04,17,10.10
2020,11,04,04,18,10.10
2020,11,04,04,19,10.10
2020,11,04,04,20,10.10
2020,11,04,04,21,10.10
2020,11,04,04,22,10.10
2020,11,04,04,23,10.10
2020,11,04,04,24,10.10
2020,11,04,04,25,10.10
2020,11,04,04,26,10.10
2020,11,04,04,27,10.10
2020,11,04,04,28,10.10
2020,11,04,04,29,10.10
2020,11,04,04,30,10.10
2020,11,04,04,31,10.10
2020,11,04,04,32,10.10
2020,11,04,04,33,10.10
2020,11,04,04,34,10.10
2020,11,04,04,35,10.10
2020,11,04,04,36,10.10
2020,11,04,04,37,10.10
2020,11,04,04,38,10.10
2020,11,04,04,39,10.10
2020,11,04,04,40,10.10
2020,11,04,04,41,10.10
2020,11,04,04,42,10.10
2020,11,04,04,43,10.10
2020,11,04,04,44,10.10
2020,11,04,04,45,10.10
2020,11,04,04,46,10.10
2020,11,04,04,47,10.10
2020,11,04,04,48,10.10
2020,11,04,04,49,10.10
2020,11,04,04,50,10.10
2020,11,04,04,51,10.10
2020,11,04,08,15,10.80
2020,11,04,08,16,10.80
2020,11,04,08,17,10.80
2020,11,04,08,18,10.80
2020,11,04,08,19,10.80
2020,11,04,08,20,10.90
2020,11,04,08,21,10.90
2020,11,04,08,22,10.90
2020,11,04,08,23,10.90
2020,11,04,08,24,10.90
2020,11,04,08,25,10.90
2020,11,04,08,26,10.90
2020,11,04,08,27,10.90
2020,11,04,08,28,10.90
2020,11,04,08,29,10.90
2020,11,04,08,30,10.90
2020,11,04,08,31,11.00
2020,11,04,08,32,11.00
2020,11,04,08,33,11.00
2020,11,04,08,34,11.10
2020,11,04,08,35,11.10
2020,11,04,08,36,11.10
2020,11,04,08,37,11.10
2020,11,04,08,38,11.10
2020,11,04,08,39,11.10
2020,11,04,08,40,11.10
2020,11,04,08,41,11.10
2020,11,04,08,42,11.10
2020,11,04,08,43,11.10
2020,11,04,08,44,11.10
2020,11,04,08,45,11.10
2020,11,04,08,46,11.20
2020,11,04,08,47,11.20
2020,11,04,08,48,11.20
2020,11,04,08,49,11.20
2020,11,04,08,50,11.20
2020,11,04,08,51,11.20
2020,11,04,08,52,11.20
2020,11,04,08,53,11.30
2020,11,04,08,54,11.30
2020,11,04,08,55,11.30
2020,11,04,08,56,11.30
2020,11,04,08,57,11.40
2020,11,04,08,58,11.40
2020,11,04,08,59,11.40
2020,11,04,09,00,11.40
2020,11,04,09,01,11.50
2020,11,04,09,02,11.50
2020,11,04,09,03,11.50
2020,11,04,09,04,11.50
2020,11,04,09,05,11.50
2020,11,04,09,06,11.60
2020,11,04,09,07,11.60
2020,11,04,09,08,11.60
2020,11,04,09,09,11.60
2020,11,04,09,10,11.60
2020,11,04,09,11,11.60
2020,11,04,09,12,11.60
2020,11,04,09,13,11.70
2020,11,04,09,14,11.70
2020,11,04,09,15,11.70
2020,11,04,09,16,11.70
2020,11,04,09,17,11.70
2020,11,04,09,18,11.70
2020,11,04,09,19,11.70
2020,11,04,09,20,11.70
2020,11,04,09,21,11.70
2020,11,04,09,22,11.70
2020,11,04,09,23,11.70
2020,11,04,09,24,11.70
2020,11,04,09,25,11.80
2020,11,04,09,26,11.80
2020,11,04,09,27,11.80
2020,11,04,09,28,11.70
2020,11,04,09,29,11.70
2020,11,04,09,30,11.70
2020,11,04,09,31,11.80
2020,11,04,09,32,11.80
2020,11,04,09,33,11.80
2020,11,04,09,34,11.80
2020,11,04,09,35,11.90
2020,11,04,09,36,11.90
2020,11,04,09,37,12.00
2020,11,04,09,38,12.10
2020,11,04,09,39,12.10
2020,11,04,09,40,12.20
2020,11,04,09,41,12.20
2020,11,04,09,42,12.30
2020,11,04,09,43,12.30
2020,11,04,09,44,12.30
2020,11,04,09,45,12.30
2020,11,04,09,46,12.40
2020,11,04,09,47,12.40
2020,11,04,09,48,12.40
2020,11,04,09,49,12.40
2020,11,04,09,50,12.40
2020,11,04,09,51,12.40
2020,11,04,09,52,12.30
2020,11,04,09,53,12.30
2020,11,04,09,54,12.30
2020,11,04,09,55,12.30
2020,11,04,09,56,12.40
2020,11,04,09,57,12.30
2020,11,04,09,58,12.30
2020,11,04,09,59,12.30
2020,11,04,10,00,12.30
2020,11,04,10,01,12.30
2020,11,04,10,02,12.30
2020,11,04,10,03,12.30
2020,11,04,10,04,12.40
2020,11,04,10,05,12.40
2020,11,04,10,06,12.40
2020,11,04,10,07,12.40
2020,11,04,10,08,12.40
2020,11,04,10,09,12.40
2020,11,04,10,10,12.40
2020,11,04,10,11,12.40
2020,11,04,10,12,12.30
2020,11,04,10,13,12.30
2020,11,04,10,14,12.30
2020,11,04,10,15,12.30
2020,11,04,10,16,12.30
2020,11,04,10,17,12.30
2020,11,04,10,18,12.40
2020,11,04,10,19,12.40
2020,11,04,10,20,12.40
2020,11,04,10,21,12.40
2020,11,04,10,22,12.40
2020,11,04,10,23,12.40
2020,11,04,10,24,12.40
2020,11,04,10,25,12.40
2020,11,04,10,26,12.50
2020,11,04,10,27,12.50
2020,11,04,10,28,12.50
2020,11,04,10,29,12.50
2020,11,04,10,30,12.50
2020,11,04,10,31,12.60
2020,11,04,10,32,12.60
2020,11,04,10,33,12.60
2020,11,04,10,34,12.70
2020,11,04,10,35,12.70
2020,11,04,10,36,12.70
2020,11,04,10,37,12.70
2020,11,04,10,38,12.70
2020,11,04,10,39,12.80
2020,11,04,10,40,12.80
2020,11,04,10,41,12.80
2020,11,04,10,42,12.80
2020,11,04,10,43,12.80
2020,11,04,10,44,12.80
2020,11,04,10,45,12.80
2020,11,04,10,46,12.80
2020,11,04,10,47,12.80
2020,11,04,10,48,12.80
2020,11,04,10,49,12.80
2020,11,04,10,50,12.80
2020,11,04,10,51,12.80
2020,11,04,10,52,12.80
2020,11,04,10,53,12.80
2020,11,04,10,54,12.80
2020,11,04,10,55,12.70
2020,11,04,10,56,12.70
2020,11,04,10,57,12.80
2020,11,04,10,58,12.80
2020,11,04,10,59,12.80
2020,11,04,11,00,12.80
2020,11,04,11,01,12.80
2020,11,04,11,02,12.80
2020,11,04,11,03,12.80
2020,11,04,11,04,12.80
2020,11,04,11,05,12.90
2020,11,04,11,06,12.90
2020,11,04,11,07,12.90
2020,11,04,11,08,12.90
2020,11,04,11,09,12.90
2020,11,04,11,10,13.00
2020,11,04,11,11,13.00
2020,11,04,11,12,13.10
2020,11,04,11,13,13.10
2020,11,04,11,14,13.10
2020,11,04,11,15,13.20
2020,11,04,11,16,13.20
2020,11,04,11,17,13.20
2020,11,04,11,18,13.30
2020,11,04,11,19,13.40
2020,11,04,11,20,13.40
2020,11,04,11,21,13.50
2020,11,04,11,22,13.60
2020,11,04,11,23,13.70
2020,11,04,11,24,13.80
2020,11,04,11,25,13.80
2020,11,04,11,26,13.90
2020,11,04,11,27,14.00
2020,11,04,11,28,14.10
2020,11,04,11,29,14.20
2020,11,04,11,30,14.30
2020,11,04,11,31,14.30
2020,11,04,11,32,14.40
2020,11,04,11,33,14.50
2020,11,04,11,34,14.50
2020,11,04,11,35,14.60
2020,11,04,11,36,14.60
2020,11,04,11,37,14.70
2020,11,04,11,38,14.80
2020,11,04,11,39,14.90
2020,11,04,11,40,15.00
2020,11,04,11,41,15.20
2020,11,04,11,42,15.30
2020,11,04,11,43,15.40
2020,11,04,11,44,15.50
2020,11,04,11,45,15.50
2020,11,04,11,46,15.60
2020,11,04,11,47,15.70
2020,11,04,11,48,15.70
2020,11,04,11,49,15.70
2020,11,04,11,50,15.80
2020,11,04,11,51,15.80
2020,11,04,11,52,15.80
2020,11,04,11,53,15.90
2020,11,04,11,54,15.90
2020,11,04,11,55,15.90
2020,11,04,11,56,16.00
2020,11,04,11,57,16.00
2020,11,04,11,58,16.00
2020,11,04,11,59,16.10
2020,11,04,12,00,16.10
2020,11,04,12,01,16.10
2020,11,04,12,02,16.20
2020,11,04,12,03,16.20
2020,11,04,12,04,16.20
2020,11,04,12,05,16.20
2020,11,04,12,06,16.20
2020,11,04,12,07,16.20
2020,11,04,12,08,16.20
2020,11,04,12,09,16.20
2020,11,04,12,10,16.20
2020,11,04,12,11,16.30
2020,11,04,12,12,16.30
2020,11,04,12,13,16.20
2020,11,04,12,14,16.20
2020,11,04,12,15,16.20
2020,11,04,12,16,16.20
2020,11,04,12,17,16.20
2020,11,04,12,18,16.20
2020,11,04,12,19,16.10
2020,11,04,12,20,16.10
2020,11,04,12,21,16.10
2020,11,04,12,22,16.10
2020,11,04,12,23,16.10
2020,11,04,12,24,16.10
2020,11,04,12,25,16.10
2020,11,04,12,26,16.10
2020,11,04,12,27,16.10
2020,11,04,12,28,16.10
2020,11,04,12,29,16.20
2020,11,04,12,30,16.20
2020,11,04,12,31,16.20
2020,11,04,12,32,16.20
2020,11,04,12,33,16.20
2020,11,04,12,34,16.20
2020,11,04,12,35,16.20
2020,11,04,12,36,16.20
2020,11,04,12,37,16.20
2020,11,04,12,38,16.20
2020,11,04,12,39,16.10
2020,11,04,12,40,16.10
2020,11,04,12,41,16.10
2020,11,04,12,42,16.10
2020,11,04,12,43,16.10
2020,11,04,12,44,16.10
2020,11,04,12,45,16.10
2020,11,04,12,46,16.10
2020,11,04,12,47,16.10
2020,11,04,12,48,16.10
2020,11,04,12,49,16.10
2020,11,04,12,50,16.10
2020,11,04,12,51,16.10
2020,11,04,12,52,16.10
2020,11,04,12,53,16.00
2020,11,04,12,54,16.00
2020,11,04,12,55,16.00
2020,11,04,12,56,16.00
2020,11,04,12,57,15.90
2020,11,04,12,58,15.90
2020,11,04,12,59,15.90
2020,11,04,13,00,15.90
2020,11,04,13,01,15.90
2020,11,04,13,02,15.80
2020,11,04,13,03,15.80
2020,11,04,13,04,15.80
2020,11,04,13,05,15.80
2020,11,04,13,06,15.80
2020,11,04,13,07,15.80
2020,11,04,13,08,15.80
2020,11,04,13,09,15.80
2020,11,04,13,10,15.80
2020,11,04,13,11,15.80
2020,11,04,13,12,15.80
2020,11,04,13,13,15.70
2020,11,04,13,14,15.70
2020,11,04,13,15,15.70
2020,11,04,13,16,15.70
2020,11,04,13,17,15.70
2020,11,04,13,18,15.70
2020,11,04,13,19,15.70
2020,11,04,13,20,15.70
2020,11,04,13,21,15.70
2020,11,04,13,22,15.70
2020,11,04,13,23,15.70
2020,11,04,13,24,15.80
2020,11,04,13,25,15.80
2020,11,04,13,26,15.80
2020,11,04,13,27,15.80
2020,11,04,13,28,15.80
2020,11,04,13,29,15.80
2020,11,04,13,30,15.70
2020,11,04,13,31,15.70
2020,11,04,13,32,15.70
2020,11,04,13,33,15.70
2020,11,04,13,34,15.60
2020,11,04,13,35,15.60
2020,11,04,13,36,15.60
2020,11,04,13,37,15.50
2020,11,04,13,38,15.50
2020,11,04,13,39,15.40
2020,11,04,13,40,15.40
2020,11,04,13,41,15.30
2020,11,04,13,42,15.30
2020,11,04,13,43,15.30
2020,11,04,13,44,15.30
2020,11,04,13,45,15.20
2020,11,04,13,46,15.20
2020,11,04,13,47,15.20
2020,11,04,13,48,15.20
2020,11,04,13,49,15.20
2020,11,04,13,50,15.20
2020,11,04,13,51,15.20
2020,11,04,13,52,15.10
2020,11,04,13,53,15.10
2020,11,04,13,54,15.10
2020,11,04,13,55,15.00
2020,11,04,13,56,15.00
2020,11,04,13,57,15.00
2020,11,04,13,58,14.90
2020,11,04,13,59,14.90
2020,11,04,14,00,14.80
2020,11,04,14,01,14.80
2020,11,04,14,02,14.70
2020,11,04,14,03,14.70
2020,11,04,14,04,14.60
2020,11,04,14,05,14.60
2020,11,04,14,06,14.50
2020,11,04,14,07,14.40
2020,11,04,14,08,14.30
2020,11,04,14,09,14.30
2020,11,04,14,10,14.20
2020,11,04,14,11,14.10
2020,11,04,14,12,14.00
2020,11,04,14,13,14.00
2020,11,04,14,14,13.90
2020,11,04,14,15,13.80
2020,11,04,14,16,13.80
2020,11,04,14,17,13.70
2020,11,04,14,18,13.60
2020,11,04,14,19,13.60
2020,11,04,14,20,13.50
2020,11,04,14,21,13.40
2020,11,04,14,22,13.40
2020,11,04,14,23,13.30
2020,11,04,14,24,13.30
2020,11,04,14,25,13.30
2020,11,04,14,26,13.20
2020,11,04,14,27,13.20
2020,11,04,14,28,13.10
2020,11,04,14,29,13.10
2020,11,04,14,30,13.00
2020,11,04,14,31,12.90
2020,11,04,14,32,12.80
2020,11,04,14,33,12.70
2020,11,04,14,34,12.70
2020,11,04,14,35,12.60
2020,11,04,14,36,12.60
2020,11,04,14,37,12.50
2020,11,04,14,38,12.50
2020,11,04,14,39,12.50
2020,11,04,14,40,12.40
2020,11,04,14,41,12.40
2020,11,04,14,42,12.30
2020,11,04,14,43,12.30
2020,11,04,14,44,12.30
2020,11,04,14,45,12.30
2020,11,04,14,46,12.30
2020,11,04,14,47,12.20
2020,11,04,14,48,12.20
2020,11,04,14,49,12.20
2020,11,04,14,50,12.20
2020,11,04,14,51,12.20
2020,11,04,14,52,12.20
2020,11,04,14,53,12.20
2020,11,04,14,54,12.20
2020,11,04,14,55,12.20
2020,11,04,14,56,12.20
2020,11,04,14,57,12.20
2020,11,04,14,58,12.20
2020,11,04,14,59,12.20
2020,11,04,15,00,12.20
2020,11,04,15,01,12.20
2020,11,04,15,02,12.20
2020,11,04,15,03,12.20
2020,11,04,15,04,12.20
2020,11,04,15,05,12.20
2020,11,04,15,06,12.20
2020,11,04,15,07,12.20
2020,11,04,15,08,12.20
2020,11,04,15,09,12.20
2020,11,04,15,10,12.20
2020,11,04,15,11,12.20
2020,11,04,15,12,12.20
2020,11,04,15,13,12.20
2020,11,04,15,14,12.20
2020,11,04,15,15,12.20
2020,11,04,15,16,12.20
2020,11,04,15,17,12.20
2020,11,04,15,18,12.20
2020,11,04,15,19,12.10
2020,11,04,15,20,12.10
2020,11,04,15,21,12.10
2020,11,04,15,22,12.10
2020,11,04,15,23,12.10
2020,11,04,15,24,12.10
2020,11,04,15,25,12.10
2020,11,04,15,26,12.10
2020,11,04,15,27,12.20
2020,11,04,15,28,12.20
2020,11,04,15,29,12.20
2020,11,04,15,30,12.20
2020,11,04,15,31,12.20
2020,11,04,15,32,12.20
2020,11,04,15,33,12.30
2020,11,04,15,34,12.30
2020,11,04,15,35,12.30
2020,11,04,15,36,12.30
2020,11,04,15,37,12.30
2020,11,04,15,38,12.30
2020,11,04,15,39,12.30
2020,11,04,15,40,12.30
2020,11,04,15,41,12.30
2020,11,04,15,42,12.30
2020,11,04,15,43,12.30
2020,11,04,15,44,12.30
2020,11,04,15,45,12.20
2020,11,04,15,46,12.20
2020,11,04,15,47,12.20
2020,11,04,15,48,12.10
2020,11,04,15,49,12.10
2020,11,04,15,50,12.10
2020,11,04,15,51,12.00
2020,11,04,15,52,12.00
2020,11,04,15,53,12.00
2020,11,04,15,54,11.90
2020,11,04,15,55,11.90
2020,11,04,15,56,11.90
2020,11,04,15,57,11.90
2020,11,04,15,58,11.90
2020,11,04,15,59,11.90
2020,11,04,16,00,11.90
2020,11,04,16,01,11.90
2020,11,04,16,02,11.90
2020,11,04,16,03,11.90
2020,11,04,16,04,11.90
2020,11,04,16,05,11.90
2020,11,04,16,06,11.90
2020,11,04,16,07,11.90
2020,11,04,16,08,11.90
2020,11,04,16,09,11.90
2020,11,04,16,10,11.90
2020,11,04,16,11,11.90
2020,11,04,16,12,11.90
2020,11,04,16,13,11.90
2020,11,04,16,14,11.90
2020,11,04,16,15,11.90
2020,11,04,16,16,11.90
2020,11,04,16,17,11.90
2020,11,04,16,18,11.90
2020,11,04,16,19,11.90
2020,11,04,16,20,11.90
2020,11,04,16,21,11.90
2020,11,04,16,22,11.90
2020,11,04,16,23,12.00
2020,11,04,16,24,12.00
2020,11,04,16,25,12.00
2020,11,04,16,26,12.00
2020,11,04,16,27,12.00
2020,11,04,16,28,12.00
2020,11,04,16,29,12.10
2020,11,04,16,30,12.10
2020,11,04,16,31,12.10
2020,11,04,16,32,12.20
2020,11,04,16,33,12.20
2020,11,04,16,34,12.20
2020,11,04,16,35,12.20
2020,11,04,16,36,12.30
2020,11,04,16,37,12.30
2020,11,04,16,38,12.30
2020,11,04,16,39,12.30
2020,11,04,16,40,12.30
2020,11,04,16,41,12.40
2020,11,04,16,42,12.40
2020,11,04,16,43,12.40
2020,11,04,16,44,12.40
2020,11,04,16,45,12.40
2020,11,04,16,46,12.50
2020,11,04,16,47,12.50
2020,11,04,16,48,12.50
2020,11,04,16,49,12.50
2020,11,04,16,50,12.60
2020,11,04,16,51,12.60
2020,11,04,16,52,12.60
2020,11,04,16,53,12.60
2020,11,04,16,54,12.60
2020,11,04,16,55,12.60
2020,11,04,16,56,12.60
2020,11,04,16,57,12.70
2020,11,04,16,58,12.70
2020,11,04,16,59,12.70
2020,11,04,17,00,12.70
2020,11,04,17,01,12.70
2020,11,04,17,02,12.70
2020,11,04,17,03,12.80
2020,11,04,17,04,12.80
2020,11,04,17,05,12.80
2020,11,04,17,06,12.80
2020,11,04,17,07,12.80
2020,11,04,17,08,12.80
2020,11,04,17,09,12.80
2020,11,04,17,10,12.80
2020,11,04,17,11,12.90
2020,11,04,17,12,12.90
2020,11,04,17,13,12.90
2020,11,04,17,14,12.90
2020,11,04,17,15,12.90
2020,11,04,17,16,12.90
2020,11,04,17,17,12.90
2020,11,04,17,18,12.90
2020,11,04,17,19,12.90
2020,11,04,17,20,12.90
2020,11,04,17,21,12.90
2020,11,04,17,22,12.90
2020,11,04,17,23,12.90
2020,11,04,17,24,12.90
2020,11,04,17,25,12.90
2020,11,04,17,26,12.90
2020,11,04,17,27,12.90
2020,11,04,17,28,12.90
2020,11,04,17,29,13.00
2020,11,04,17,30,13.00
2020,11,04,17,31,13.00
2020,11,04,17,32,13.00
2020,11,04,17,33,13.10
2020,11,04,17,34,13.10
2020,11,04,17,35,13.10
2020,11,04,17,36,13.10
2020,11,04,17,37,13.10
2020,11,04,17,38,13.10
2020,11,04,17,39,13.10
2020,11,04,17,40,13.20
2020,11,04,17,41,13.20
2020,11,04,17,42,13.20
2020,11,04,17,43,13.20
2020,11,04,17,44,13.20
2020,11,04,17,45,13.20
2020,11,04,17,46,13.30
2020,11,04,17,47,13.30
2020,11,04,17,48,13.30
2020,11,04,17,49,13.30
2020,11,04,17,50,13.40
2020,11,04,17,51,13.40
2020,11,04,17,52,13.40
2020,11,04,17,53,13.40
2020,11,04,17,54,13.50
2020,11,04,17,55,13.50
2020,11,04,17,56,13.50
2020,11,04,17,57,13.50
2020,11,04,17,58,13.50
2020,11,04,17,59,13.50
2020,11,04,18,00,13.60
2020,11,04,18,01,13.60
2020,11,04,18,02,13.60
2020,11,04,18,03,13.60
2020,11,04,18,04,13.60
2020,11,04,18,05,13.60
2020,11,04,18,06,13.60
2020,11,04,18,07,13.60
2020,11,04,18,08,13.60
2020,11,04,18,09,13.60
2020,11,04,18,10,13.60
2020,11,04,18,11,13.60
2020,11,04,18,12,13.60
2020,11,04,18,13,13.50
2020,11,04,18,14,13.50
2020,11,04,18,15,13.50
2020,11,04,18,16,13.50
2020,11,04,18,17,13.50
2020,11,04,18,18,13.50
2020,11,04,18,19,13.50
2020,11,04,18,20,13.50
2020,11,04,18,21,13.50
2020,11,04,18,22,13.60
2020,11,04,18,23,13.60
2020,11,04,18,24,13.60
2020,11,04,18,25,13.60
2020,11,04,18,26,13.70
2020,11,04,18,27,13.70
2020,11,04,18,28,13.70
2020,11,04,18,29,13.70
2020,11,04,18,30,13.70
2020,11,04,18,31,13.60
2020,11,04,18,32,13.60
2020,11,04,18,33,13.60
2020,11,04,18,34,13.60
2020,11,04,18,35,13.60
2020,11,04,18,36,13.60
2020,11,04,18,37,13.60
2020,11,04,18,38,13.60
2020,11,04,18,39,13.60
2020,11,04,18,40,13.60
2020,11,04,18,41,13.50
2020,11,04,18,42,13.50
2020,11,04,18,43,13.50
2020,11,04,18,44,13.50
2020,11,04,18,45,13.60
2020,11,04,18,46,13.60
2020,11,04,18,47,13.60
2020,11,04,18,48,13.60
2020,11,04,18,49,13.60
2020,11,04,18,50,13.60
2020,11,04,18,51,13.60
2020,11,04,18,52,13.60
2020,11,04,18,53,13.60
2020,11,04,18,54,13.60
2020,11,04,18,55,13.60
2020,11,04,18,56,13.60
2020,11,04,18,57,13.60
2020,11,04,18,58,13.60
2020,11,04,18,59,13.60
2020,11,04,19,00,13.60
2020,11,04,19,01,13.60
2020,11,04,19,02,13.60
2020,11,04,19,03,13.60
2020,11,04,19,04,13.60
2020,11,04,19,05,13.60
2020,11,04,19,06,13.60
2020,11,04,19,07,13.60
2020,11,04,19,08,13.70
2020,11,04,19,09,13.60
2020,11,04,19,10,13.70
2020,11,04,19,11,13.70
2020,11,04,19,12,13.70
2020,11,04,19,13,13.80
2020,11,04,19,14,13.80
2020,11,04,19,15,13.90
2020,11,04,19,16,14.00
2020,11,04,19,17,14.10
2020,11,04,19,18,14.10
2020,11,04,19,19,14.20
2020,11,04,19,20,14.30
2020,11,04,19,21,14.30
2020,11,04,19,22,14.40
2020,11,04,19,23,14.40
2020,11,04,19,24,14.40
2020,11,04,19,25,14.40
2020,11,04,19,26,14.50
2020,11,04,19,27,14.50
2020,11,04,19,28,14.60
2020,11,04,19,29,14.70
2020,11,04,19,30,14.70
2020,11,04,19,31,14.80
2020,11,04,19,32,15.00
2020,11,04,19,33,15.10
2020,11,04,19,34,15.10
2020,11,04,19,35,15.10
2020,11,04,19,36,15.10
2020,11,04,19,37,15.20
2020,11,04,19,38,15.20
2020,11,04,19,39,15.20
2020,11,04,19,40,15.20
2020,11,04,19,41,15.20
2020,11,04,19,42,15.20
2020,11,04,19,43,15.20
2020,11,04,19,44,15.10
2020,11,04,19,45,15.10
2020,11,04,19,46,15.10
2020,11,04,19,47,15.10
2020,11,04,19,48,15.00
2020,11,04,19,49,14.90
2020,11,04,19,50,14.90
2020,11,04,19,51,14.90
2020,11,04,19,52,15.00
2020,11,04,19,53,15.00
2020,11,04,19,54,15.00
2020,11,04,19,55,15.00
2020,11,04,19,56,15.10
2020,11,04,19,57,15.10
2020,11,04,19,58,15.10
2020,11,04,19,59,15.10
2020,11,04,20,00,15.10
2020,11,04,20,01,15.10
2020,11,04,20,02,15.00
2020,11,04,20,03,15.00
2020,11,04,20,04,15.00
2020,11,04,20,05,15.00
2020,11,04,20,06,14.90
2020,11,04,20,07,14.90
2020,11,04,20,08,14.90
2020,11,04,20,09,14.90
2020,11,04,20,10,14.90
2020,11,04,20,11,15.00
2020,11,04,20,12,15.00
2020,11,04,20,13,15.00
2020,11,04,20,14,15.00
2020,11,04,20,15,14.90
2020,11,04,20,16,14.90
2020,11,04,20,17,14.80
2020,11,04,20,18,14.80
2020,11,04,20,19,14.80
2020,11,04,20,20,14.80
2020,11,04,20,21,14.80
2020,11,04,20,22,14.80
2020,11,04,20,23,14.80
2020,11,04,20,24,14.80
2020,11,04,20,25,14.80
2020,11,04,20,26,14.80
2020,11,04,20,27,14.80
2020,11,04,20,28,14.70
2020,11,04,20,29,14.70
2020,11,04,20,30,14.80
2020,11,04,20,31,14.80
2020,11,04,20,32,14.80
2020,11,04,20,33,14.80
2020,11,04,20,34,14.80
2020,11,04,20,35,14.80
2020,11,04,20,36,14.80
2020,11,04,20,37,14.90
2020,11,04,20,38,14.90
2020,11,04,20,39,15.00
2020,11,04,20,40,15.00
2020,11,04,20,41,15.10
2020,11,04,20,42,15.10
2020,11,04,20,43,15.10